This is the latest recevied weather packets stored in our database for station/object W0AVQ. If no packets are shown the sender has not sent any weather packets the latest 1 day(s).
| Time | Temp. | Humidity | Pressure | Rain* | Wind** | Luminosity | Snow |
|---|---|---|---|---|---|---|---|
| 1778019030 | 11.67° C | 99% | 1009.6 hPa | 0 mm | 0.45 m/s, 297° | 19 W/m² | - |
| 1778018728 | 12.22° C | 99% | 1009.5 hPa | 0 mm | 1.34 m/s, 314° | 42 W/m² | - |
| 1778018426 | 12.22° C | 99% | 1009.3 hPa | 0 mm | 0 m/s | 40 W/m² | - |
| 1778018126 | 12.22° C | 99% | 1009.3 hPa | 0 mm | 0 m/s | 42 W/m² | - |
| 1778017821 | 12.22° C | 99% | 1009.2 hPa | 1.78 mm | 0 m/s | 63 W/m² | - |
| 1778017519 | 12.22° C | 99% | 1009.3 hPa | 1.78 mm | 1.34 m/s, 247° | 76 W/m² | - |
| 1778017216 | 12.22° C | 99% | 1009.7 hPa | 0 mm | 0 m/s | 75 W/m² | - |
| 1778016913 | 12.22° C | 99% | 1009.5 hPa | 0 mm | 0.45 m/s, 340° | 67 W/m² | - |
| 1778016609 | 12.22° C | 99% | 1009.7 hPa | 0 mm | 0.45 m/s, 310° | 71 W/m² | - |
| 1778016306 | 12.22° C | 99% | 1009.7 hPa | 0 mm | 0 m/s | 64 W/m² | - |
| 1778016003 | 12.78° C | 99% | 1009.7 hPa | 1.27 mm | 1.34 m/s, 293° | 57 W/m² | - |
| 1778015701 | 12.78° C | 99% | 1009.6 hPa | 1.27 mm | 0 m/s | 38 W/m² | - |
| 1778015396 | 12.78° C | 99% | 1009.4 hPa | 1.78 mm | 0 m/s | 47 W/m² | - |
| 1778015094 | 13.33° C | 99% | 1009.6 hPa | 3.05 mm | 0 m/s | 44 W/m² | - |
| 1778014790 | 13.33° C | 99% | 1009.4 hPa | 1.27 mm | 1.34 m/s, 313° | 55 W/m² | - |
| 1778014489 | 13.33° C | 99% | 1009.4 hPa | 1.78 mm | 0 m/s | 45 W/m² | - |
| 1778014185 | 13.33° C | 99% | 1009.4 hPa | 3.56 mm | 1.34 m/s, 270° | 31 W/m² | - |
| 1778013883 | 13.33° C | 99% | 1009 hPa | 3.05 mm | 0 m/s | 29 W/m² | - |
| 1778013580 | 13.33° C | 99% | 1009.4 hPa | 3.05 mm | 0.45 m/s, 312° | 32 W/m² | - |
| 1778013277 | 13.89° C | 99% | 1009.4 hPa | 3.05 mm | 0 m/s | 31 W/m² | - |
| 1778012973 | 13.89° C | 99% | 1009.4 hPa | 3.05 mm | 0.89 m/s, 299° | 40 W/m² | - |
| 1778012669 | 13.89° C | 99% | 1009.2 hPa | 3.05 mm | 0 m/s | 34 W/m² | - |
| 1778012366 | 13.89° C | 99% | 1009.1 hPa | 3.05 mm | 0.45 m/s, 278° | 39 W/m² | - |
| 1778012063 | 14.44° C | 99% | 1009.2 hPa | 3.05 mm | 0.45 m/s, 304° | 42 W/m² | - |
| 1778011761 | 14.44° C | 99% | 1009.1 hPa | 3.05 mm | 0 m/s | 63 W/m² | - |
* Rain latest hour (hover to see other rain measurements)
** Current wind speed in m/s (hover to see current wind gust speed)